RH
1 2 1 2 5 5 5 5 5 7 5 8 14 16 25 37 26 13 15 16 18 32 45 61 74 67 56 52 52 61 66 55 53 64 63 55 53 52 48 45 44 42 44 48 48 42 36 36 34 35 44 47 60 89 99 90 80 59 48 55 58 56 51 49 54 53 53 59 62 65 67 59 51 53 64 70 75 79 78 83 83 74 78 81 85 91 67
1 1 1 2 4 5 5 5 5 5 7 9 8 20 42 39 20 21 20 7 19 41 45 49 59 58 51 51 53 58 62 62 58 59 61 57 51 48 52 51 40 41 56 55 42 35 29 26 32 38 42 50 77 105 101 84 76 63 58 60 52 45 44 46 48 45 47 58 63 61 59 55 53 61 72 72 74 80 79 79 74 70 77 77 84 92 62
1 1 1 1 2 4 6 5 4 6 8 8 8 22 45 36 20 34 32 12 24 47 53 59 65 64 52 42 47 50 47 60 67 61 61 64 57 48 47 53 52 54 60 53 47 49 34 22 33 42 39 52 87 107 98 90 86 81 88 90 66 49 48 45 41 38 36 39 42 42 44 52 59 65 69 69 72 71 65 69 73 71 78 80 81 79 48
2 1 0 1 2 3 5 5 5 6 6 9 10 15 34 34 24 42 52 40 43 56 69 77 68 62 56 38 37 45 38 48 70 67 56 59 64 55 46 50 53 51 54 53 54 59 49 34 37 43 42 51 79 101 101 99 98 94 100 101 79 63 61 54 50 51 43 34 32 34 38 42 46 54 62 67 72 72 69 77 80 78 86 84 71 65 51
3 2 1 1 1 2 4 5 5 6 6 9 10 15 37 43 29 40 51 43 50 59 68 77 63 51 52 33 27 47 44 36 50 56 54 64 71 62 54 53 43 35 43 47 48 57 58 48 42 43 49 53 65 90 101 98 98 97 98 97 78 58 55 59 62 59 48 42 41 40 43 45 43 49 59 68 77 78 70 71 73 73 76 68 58 63 63
4 3 1 0 2 1 3 6 4 6 6 5 11 23 41 42 29 36 38 29 42 49 45 62 65 52 57 48 36 49 49 35 35 40 49 64 65 49 42 47 46 45 44 35 36 48 46 45 47 43 49 54 50 62 83 93 100 96 84 83 71 47 46 61 67 63 57 55 53 48 50 56 55 56 57 60 74 80 68 61 66 68 61 51 50 59 57
5 6 2 0 2 1 2 5 3 6 6 2 10 21 32 36 32 39 42 34 42 47 44 63 68 54 56 52 40 47 43 30 35 41 38 46 56 47 30 31 51 67 62 39 34 42 31 24 39 41 41 51 47 41 53 75 94 87 69 72 67 49 58 74 70 62 55 50 54 59 62 68 64 59 59 58 65 75 70 62 62 63 59 52 50 55 54
7 8 4 1 3 0 2 6 3 6 6 3 12 20 24 28 26 35 51 52 52 58 58 61 58 50 48 37 34 53 49 31 38 45 32 24 37 45 33 36 62 77 69 47 32 40 34 16 26 39 37 47 58 48 41 53 72 73 66 71 60 40 60 85 73 56 52 51 58 62 64 69 62 50 56 64 65 69 72 70 67 66 68 63 58 66 66
8 9 7 3 3 1 2 4 2 6 6 4 16 23 22 23 22 38 59 52 42 51 54 54 50 45 47 40 32 42 48 43 41 42 46 45 40 42 41 46 63 68 64 57 47 55 58 37 37 50 43 46 57 46 39 49 60 63 64 68 56 40 60 84 68 49 54 59 61 58 54 59 61 55 61 71 73 74 76 76 75 69 67 64 64 68 60
10 10 9 7 5 2 3 4 3 5 4 5 16 21 26 28 19 37 65 52 37 48 53 53 48 36 44 55 45 42 53 60 45 29 50 73 64 59 63 58 55 53 49 55 62 71 74 62 63 72 65 62 62 53 55 64 68 73 69 66 67 58 56 66 57 50 62 65 60 58 47 38 42 55 68 71 70 73 73 71 74 69 58 55 56 50 38
19 14 11 10 9 5 4 4 3 5 4 6 16 21 31 35 22 44 78 53 33 53 50 34 35 36 47 62 59 53 53 54 47 27 30 58 69 76 82 62 44 47 54 66 81 87 85 80 81 84 78 73 72 72 71 65 72 86 74 63 77 76 58 58 57 55 68 73 62 51 36 22 29 53 69 60 46 53 57 53 59 64 56 52 50 42 37
40 30 18 13 12 8 8 6 3 7 6 5 13 18 27 34 29 57 89 51 24 52 47 26 43 58 62 68 65 60 52 47 58 56 42 52 73 84 83 54 29 44 73 90 97 91 80 76 76 78 80 80 80 82 75 62 68 85 74 62 79 81 63 62 65 62 70 76 59 38 29 30 36 49 62 55 41 48 56 50 51 59 59 57 55 49 46
61 54 41 30 22 13 11 10 5 7 8 5 9 12 20 31 28 49 84 58 28 43 38 32 67 85 78 79 71 63 64 61 70 81 68 60 66 73 79 65 44 60 92 103 93 74 57 58 64 66 71 73 70 76 85 81 76 79 76 72 78 80 69 64 69 67 62 60 49 33 32 40 37 38 53 60 53 51 54 50 47 51 56 60 57 51 47
71 68 62 54 45 32 22 16 9 8 9 6 9 10 12 23 23 31 53 43 24 38 40 36 59 72 70 77 66 51 60 61 56 63 67 69 72 75 89 94 82 89 106 96 74 57 47 51 59 60 62 56 41 46 75 92 85 78 81 80 75 75 71 59 57 59 53 54 61 54 41 38 37 38 48 53 47 45 51 50 42 40 49 56 51 45 45
76 74 71 65 63 56 44 33 20 12 10 8 9 11 8 14 22 24 34 41 37 43 40 26 32 49 63 75 64 42 44 49 41 43 63 88 98 92 97 102 95 100 100 76 60 57 44 37 40 40 44 40 23 25 51 73 78 77 81 85 76 68 65 49 40 55 63 56 60 62 46 37 42 49 54 58 56 56 61 57 45 38 42 48 48 44 45
79 78 76 71 69 67 61 56 43 26 18 11 7 11 8 10 19 20 29 50 46 28 26 35 50 65 68 64 55 40 37 44 44 40 49 73 92 100 102 98 94 102 92 65 61 63 43 33 39 38 39 37 24 24 35 42 55 67 75 82 73 65 77 70 50 60 71 53 49 59 47 35 42 45 51 68 75 69 64 54 46 51 57 57 53 50 50
82 79 80 76 73 71 66 66 63 49 36 22 10 12 12 10 15 14 20 37 29 19 45 70 69 62 53 44 48 52 48 48 46 35 31 50 79 95 96 91 92 98 85 60 55 56 44 44 48 44 51 51 30 25 34 34 37 47 57 73 75 70 82 82 62 66 76 63 64 72 55 39 41 37 48 76 79 63 56 47 40 54 75 77 67 58 55
85 82 83 79 77 77 70 67 68 63 56 43 23 15 13 12 12 11 21 34 20 14 49 66 45 37 43 42 47 53 49 46 45 39 37 53 78 89 86 80 72 69 70 61 52 50 49 52 51 43 49 53 34 26 39 39 33 39 50 69 84 86 85 79 72 81 85 69 67 70 57 48 49 49 65 81 66 47 47 43 31 39 61 73 70 62 57
88 85 86 84 81 80 76 72 70 66 66 61 44 28 22 20 15 8 23 46 30 13 37 54 42 42 50 47 46 50 50 48 48 46 35 34 59 81 79 68 57 56 65 62 50 48 48 50 55 48 42 50 46 34 37 39 36 41 45 44 54 72 81 79 80 88 87 79 78 72 56 51 59 70 80 72 48 39 44 40 32 33 38 45 51 52 50
91 88 88 88 86 84 81 78 75 71 69 67 61 52 42 35 26 11 19 44 41 29 43 54 47 46 47 41 40 44 47 47 49 54 48 40 55 63 46 42 54 57 55 50 45 46 46 50 59 51 43 55 55 38 41 53 49 42 33 28 37 52 61 73 85 83 75 78 81 63 44 47 57 60 61 55 43 37 34 30 31 33 31 33 38 41 46
90 90 89 88 88 87 84 83 80 77 74 70 67 65 58 49 37 19 15 29 30 26 33 37 36 39 37 36 39 39 43 47 48 57 65 64 64 51 32 43 63 52 41 49 49 38 39 52 60 53 48 52 47 42 51 59 58 50 36 31 43 47 45 57 70 62 54 64 68 46 38 57 61 38 29 38 40 34 32 31 31 29 30 35 36 37 44
89 89 89 89 89 88 85 86 85 81 80 77 72 68 64 56 42 25 21 27 24 21 25 26 30 33 28 29 36 39 46 54 53 55 62 63 63 58 51 60 68 53 45 52 47 37 42 51 52 54 57 49 42 50 54 45 48 57 44 31 39 49 51 51 48 44 44 51 52 38 33 52 61 41 26 28 29 30 36 39 37 34 33 35 36 37 42
84 86 86 87 90 89 87 88 88 85 84 82 78 74 67 54 39 28 29 33 30 28 29 27 28 32 33 34 36 38 45 51 49 52 54 51 54 62 62 61 59 55 54 49 43 50 61 55 46 53 61 53 43 46 46 40 50 61 50 37 41 54 60 50 39 46 49 37 33 36 29 31 41 40 34 33 33 33 36 37 38 37 34 35 39 43 44
73 79 83 85 87 88 88 87 88 89 88 85 84 81 67 49 39 34 32 34 34 32 35 41 40 35 38 41 37 37 42 41 39 44 48 47 48 50 54 57 51 50 61 63 55 55 57 52 45 43 46 52 50 43 38 42 55 58 49 45 50 57 59 45 32 41 43 29 29 38 32 27 30 29 29 33 34 33 33 35 36 34 33 37 43 47 52
59 65 74 82 85 86 87 88 90 91 90 88 88 84 69 56 53 49 39 40 43 31 28 47 56 41 36 42 40 38 42 41 40 42 43 49 54 49 50 55 49 47 60 63 52 43 39 42 48 47 46 51 49 42 39 42 49 52 48 50 53 48 44 44 41 40 37 30 29 32 31 31 32 29 28 30 29 29 32 34 37 39 42 47 53 58 64
44 47 57 70 78 81 84 88 92 93 92 92 91 86 74 65 68 67 56 53 56 41 27 44 60 47 36 42 43 42 46 46 48 51 50 52 59 61 60 56 46 47 54 51 49 53 50 47 50 52 54 52 43 43 50 47 43 47 48 50 51 40 34 46 50 43 39 36 30 27 29 29 26 25 30 33 33 34 35 36 42 49 54 57 59 61 67
36 37 43 56 69 77 82 86 91 94 94 93 93 90 80 67 68 79 77 66 59 52 45 56 67 55 42 47 52 53 56 57 56 58 59 59 60 63 64 58 51 56 57 48 51 60 57 52 53 59 68 67 54 55 63 54 47 53 53 50 49 40 35 43 47 44 42 35 24 22 25 24 20 19 22 29 38 43 42 41 44 46 47 50 50 49 56
36 34 35 43 57 72 82 87 91 94 93 92 93 92 83 69 64 79 90 78 62 58 59 66 70 59 45 51 62 64 65 68 67 63 62 63 63 64 64 60 58 62 59 52 54 59 57 57 60 64 72 68 53 53 61 56 53 58 52 44 42 35 30 35 41 42 36 23 18 23 25 22 22 20 20 27 37 43 44 41 40 41 41 45 50 52 53
39 35 34 38 49 63 75 81 87 91 91 92 92 88 84 77 70 80 94 88 74 68 68 73 78 63 42 47 67 72 68 70 71 67 65 67 67 68 69 66 64 66 64 60 62 65 68 71 70 67 65 56 44 47 56 57 58 53 38 32 36 33 29 29 29 28 25 19 19 25 26 25 26 26 29 35 38 42 46 43 41 46 48 49 56 61 59
41 37 38 43 48 54 61 68 80 88 88 88 89 89 91 89 84 89 97 91 82 75 69 74 85 71 49 58 79 80 73 75 74 70 72 73 72 72 71 69 69 69 64 58 57 63 71 75 74 76 74 56 39 44 59 68 68 53 34 31 35 32 30 32 28 25 25 22 22 29 35 37 37 36 38 41 40 44 50 48 46 50 52 55 62 65 64
45 41 41 45 47 48 49 57 71 80 80 81 86 95 101 97 91 95 96 90 86 78 63 67 81 70 52 64 84 83 80 82 78 73 75 76 75 76 73 70 70 70 68 66 67 71 75 71 66 72 75 56 40 49 65 69 61 46 34 33 34 32 34 36 34 33 33 30 32 39 41 39 39 39 39 38 38 43 50 51 51 52 56 61 67 69 68
46 44 44 45 45 46 47 54 62 68 72 79 87 96 101 98 95 98 94 87 88 80 61 63 80 74 55 57 73 82 84 80 75 74 77 74 72 72 70 70 71 68 68 70 68 69 76 75 66 68 71 57 48 61 72 64 50 40 30 27 30 34 38 38 38 41 45 44 43 43 40 37 36 36 37 40 44 49 55 57 56 56 61 67 69 69 69
48 47 46 46 48 50 53 56 58 60 68 80 88 93 96 95 97 98 93 89 89 78 60 57 69 71 60 53 57 68 75 73 73 77 75 71 70 67 66 73 75 68 66 69 68 68 77 78 70 71 74 63 57 67 71 58 42 35 30 28 31 34 36 40 43 47 50 51 47 43 40 38 37 39 46 52 53 53 55 59 61 64 69 71 71 68 67
50 48 46 48 51 54 56 57 59 63 71 81 89 90 89 89 92 93 94 95 90 74 60 55 56 61 65 61 58 63 69 68 69 72 71 72 75 74 73 78 78 69 66 70 70 71 77 77 73 75 79 73 68 70 64 47 37 38 40 40 38 36 38 43 45 46 50 55 55 52 47 45 48 52 55 56 54 53 57 61 66 71 72 69 67 66 67
53 49 48 49 51 52 56 61 66 69 73 79 83 83 81 84 87 89 94 98 93 80 69 60 54 61 74 78 74 73 73 71 71 73 74 75 78 81 81 79 75 71 68 66 68 76 80 75 69 71 76 77 73 68 59 46 42 47 48 43 39 40 43 43 42 43 47 52 57 60 59 59 62 62 58 57 59 60 62 64 66 70 70 65 63 64 66
57 53 51 51 50 52 60 70 76 77 80 83 83 82 84 87 88 91 97 100 98 93 83 71 65 68 70 72 71 67 66 74 82 83 81 79 79 83 86 81 79 81 77 71 79 90 85 70 64 70 79 78 67 59 57 53 49 48 44 39 39 42 42 43 46 50 53 55 59 60 60 60 62 61 60 61 62 61 61 61 61 64 66 64 62 65 67
58 57 56 52 52 60 73 81 83 82 83 83 81 82 90 94 94 98 101 99 99 99 90 84 90 86 69 66 75 70 65 76 82 75 76 85 84 82 86 85 82 83 82 83 92 96 84 70 67 73 77 69 54 50 53 51 46 44 40 39 44 48 48 51 57 60 61 60 56 53 55 58 60 60 60 61 60 60 61 61 62 65 68 68 67 69 69
61 60 60 61 69 85 94 89 79 74 75 78 81 86 92 95 95 99 100 96 97 100 92 89 98 94 76 75 84 72 62 76 83 72 73 84 79 72 80 88 82 77 78 81 85 84 78 75 78 82 78 63 51 52 54 46 41 45 47 49 55 58 56 58 61 59 57 55 49 48 54 59 58 58 60 62 63 63 64 64 64 65 68 69 70 70 71
61 63 69 80 89 95 91 80 73 72 74 77 81 83 84 86 90 96 99 96 94 96 95 95 99 95 85 87 90 72 55 65 80 79 77 77 70 66 73 78 74 73 74 75 74 70 68 75 90 100 90 65 49 53 57 52 50 56 61 63 63 60 59 63 60 53 52 53 52 54 59 62 62 65 67 68 70 69 68 67 65 62 62 64 64 66 68
71 80 92 99 95 83 72 69 75 83 86 86 87 86 88 93 95 94 96 100 96 89 89 92 93 89 81 80 84 78 61 56 68 79 78 73 70 67 63 62 64 66 66 69 73 69 65 71 86 94 81 57 43 47 56 62 65 67 68 66 59 52 53 57 52 47 50 55 54 55 58 61 67 71 71 72 74 73 70 68 65 61 61 62 61 61 62
93 98 101 99 90 79 72 71 78 89 93 94 96 97 96 97 96 88 88 94 94 87 83 81 79 80 78 73 74 77 68 57 63 74 75 72 71 63 55 57 62 59 57 65 73 73 70 74 82 87 81 64 50 49 57 64 65 62 59 55 48 43 45 48 45 42 48 56 58 56 52 52 59 66 68 71 74 75 72 70 66 61 60 61 62 60 57
95 97 98 95 90 85 82 83 88 95 95 92 96 99 98 98 97 91 85 84 82 79 75 68 63 68 70 64 63 69 64 57 62 68 67 68 71 64 59 65 68 62 64 70 69 69 76 78 75 80 83 72 56 53 57 57 56 57 55 48 42 42 46 49 47 43 43 50 58 57 51 50 57 61 61 62 65 66 66 65 62 58 55 54 58 60 59
83 88 93 93 89 85 82 82 85 91 95 95 96 97 97 98 99 96 90 84 78 75 72 64 62 67 66 59 60 64 58 54 63 69 66 68 71 66 63 70 73 71 72 70 63 67 79 76 66 70 77 67 55 57 60 59 63 69 64 48 39 41 44 46 48 48 45 46 51 53 52 55 58 57 54 54 56 58 58 55 52 52 51 49 52 56 58
78 80 84 89 93 86 72 66 74 87 96 98 97 96 97 97 96 95 94 87 75 70 71 69 67 68 68 66 68 68 61 58 65 68 65 69 74 70 68 76 81 75 68 62 62 69 73 65 62 73 76 61 51 56 64 67 72 74 66 51 42 42 45 47 52 56 56 53 52 54 55 56 56 55 52 51 52 55 56 52 47 47 48 50 53 54 54
85 89 90 96 100 86 64 60 78 94 97 96 97 98 99 97 94 95 94 84 70 65 72 76 71 69 72 73 71 69 70 71 68 62 61 70 76 73 73 80 81 72 65 66 72 73 66 59 62 70 66 52 48 57 69 75 74 69 64 59 54 50 51 55 60 62 61 58 55 55 55 55 54 55 53 50 48 50 52 51 49 50 52 55 58 57 54
94 97 96 98 98 88 77 79 91 98 96 97 100 99 95 93 94 93 89 80 71 68 71 73 70 71 77 78 70 70 79 80 70 63 70 79 78 74 74 75 72 73 78 81 77 69 58 52 55 58 54 50 55 66 73 76 74 68 63 62 60 57 57 59 60 61 59 56 54 54 54 53 53 54 54 52 50 50 51 51 52 54 56 59 61 59 58
93 93 94 97 97 95 95 96 95 93 93 94 95 94 91 89 88 85 80 77 76 75 76 76 74 72 74 71 65 68 80 85 76 71 74 74 70 71 75 74 71 74 80 77 68 59 54 52 55 59 60 60 64 69 70 68 67 65 63 62 64 64 61 60 60 59 56 53 54 55 55 55 55 56 57 57 56 55 55 56 55 55 57 60 61 60 61
95 92 93 96 95 94 96 96 91 90 93 92 91 92 91 87 82 81 79 76 76 77 78 78 76 75 77 76 71 71 80 87 84 78 75 74 74 78 84 88 87 82 74 67 60 56 54 56 59 63 65 66 67 69 68 66 65 66 66 67 67 64 60 59 59 55 51 51 55 57 57 57 58 59 61 63 63 60 57 57 58 58 59 61 62 62 64
98 95 95 97 95 92 95 96 94 94 95 91 87 86 84 81 81 82 80 78 80 80 76 73 73 77 81 84 84 82 83 84 83 82 83 84 82 81 83 88 87 77 66 63 64 62 60 63 67 68 71 74 74 70 67 66 66 67 66 65 62 59 57 57 55 51 50 54 57 58 58 59 61 62 64 66 66 62 59 59 61 63 62 62 63 64 64
99 97 97 96 94 92 93 93 94 95 94 90 86 84 80 78 81 81 77 76 80 79 75 74 77 77 78 82 86 86 83 80 81 84 85 83 81 81 82 80 73 64 61 64 68 69 71 74 75 74 73 72 69 65 63 63 64 64 62 58 55 54 54 53 53 53 54 55 56 58 61 63 63 64 66 66 65 65 66 66 65 64 62 60 61 62 62
96 98 96 91 88 89 90 89 90 92 91 90 91 90 86 85 86 81 72 70 77 82 81 80 78 76 78 84 87 85 82 81 82 83 80 74 75 82 83 74 66 67 71 72 71 73 76 77 75 73 70 66 63 62 62 62 61 61 58 55 54 56 56 55 56 57 58 58 59 61 63 64 63 63 64 65 67 71 73 69 64 61 59 59 60 61 61
96 98 97 92 89 88 89 90 92 92 90 90 92 91 87 86 83 73 65 69 81 88 85 80 79 81 84 83 79 78 80 82 81 79 74 66 63 68 71 69 69 74 77 75 73 73 72 70 69 68 66 65 64 64 63 61 60 58 55 55 57 58 59 59 60 61 61 62 63 63 63 64 63 63 65 68 72 75 74 69 62 59 59 60 61 61 61
Wind_Speed
29 30 31 32 33 34 36 38 36 33 24 13 9 7 5 4 2 6 20 13 3 10 8 2 5 4 0 1 1 1 2 2 1 0 0 0 0 1 1 1 1 1 2 1 2 2 2 2 1 2 3 2 1 0 2 2 2 3 1 1 0 0 2 1 5 5 4 6 4 1 1 1 1 2 2 4 3 3 5 5 3 1 2 2 3 3 9
28 29 30 32 33 33 34 36 34 32 27 17 9 5 3 2 3 5 20 14 2 5 5 2 3 2 0 2 2 2 1 2 1 0 1 0 1 1 1 1 0 1 2 2 2 2 1 1 1 1 2 2 1 2 1 0 1 1 1 1 0 1 0 1 3 6 7 7 6 5 4 1 2 3 1 3 4 6 4 2 3 1 4 5 4 5 9
28 29 30 31 32 32 32 34 32 29 24 18 10 5 3 4 1 3 16 21 12 5 3 6 5 2 2 4 2 2 2 1 1 1 1 1 2 2 0 1 1 2 2 2 1 1 0 1 1 1 1 2 1 1 1 1 2 1 1 1 0 1 2 2 2 2 3 5 5 5 4 2 2 1 2 2 5 7 4 2 3 2 4 5 5 6 10
28 28 29 30 31 32 31 31 31 27 20 16 15 9 3 3 3 3 9 14 12 4 1 5 6 4 3 3 2 2 2 1 1 1 0 0 1 1 1 0 2 2 2 1 1 2 1 1 1 0 2 3 1 1 0 2 1 1 1 1 2 2 2 3 5 6 5 6 8 5 1 3 5 4 3 4 4 5 5 4 3 5 3 3 8 10 12
28 28 29 29 30 31 31 29 30 27 19 14 15 12 5 3 3 2 3 5 5 5 4 5 4 3 4 3 0 1 0 2 1 1 1 0 1 0 0 1 1 1 1 1 1 2 1 1 0 1 3 3 3 1 2 2 2 1 1 1 3 3 3 4 6 8 9 9 10 7 1 4 9 8 6 6 5 6 7 6 7 5 3 5 9 8 7
28 28 28 29 29 30 31 29 28 27 22 17 14 8 5 4 2 1 1 1 2 3 4 4 5 4 3 3 1 1 0 1 1 1 1 1 1 0 1 1 2 4 3 2 1 2 2 1 2 1 2 2 3 2 1 1 2 2 1 1 3 4 3 4 4 7 11 10 12 9 4 6 8 7 8 8 6 9 12 12 9 7 5 11 10 5 8
29 28 28 29 29 29 30 29 28 26 23 25 23 9 3 4 3 1 2 2 3 1 2 2 5 5 3 3 1 2 3 2 3 2 1 2 2 1 1 4 3 4 3 3 1 2 1 2 4 2 1 2 1 1 1 1 1 0 1 2 1 4 3 4 3 6 11 10 10 8 5 4 7 8 10 10 9 12 13 12 9 9 12 16 16 15 17
29 29 29 28 28 29 29 29 28 25 23 27 25 11 3 3 3 1 3 4 1 1 1 3 4 4 3 2 1 3 5 4 3 2 2 1 2 1 2 4 2 3 3 4 2 5 5 3 5 4 2 3 2 2 2 2 1 1 1 1 1 1 3 2 3 3 9 8 6 4 5 5 8 12 9 7 7 8 9 8 6 7 11 16 14 13 16
30 30 30 29 29 28 28 29 28 26 25 24 17 8 5 3 2 2 5 3 3 2 2 3 4 3 3 2 1 1 3 4 2 1 2 2 3 4 4 3 2 2 2 3 6 7 7 7 6 6 4 3 3 3 2 4 3 1 1 0 1 1 2 2 5 3 7 4 5 9 8 4 6 12 11 6 6 6 6 6 6 8 8 9 8 7 11
32 31 31 31 30 29 28 28 28 27 26 22 12 5 6 4 1 1 5 3 3 2 2 3 3 2 1 0 1 2 3 3 1 1 1 1 2 4 5 5 3 1 2 5 7 5 4 4 3 3 3 2 1 1 1 5 5 3 3 1 1 3 1 2 3 2 6 5 5 9 9 6 4 8 6 7 7 6 5 5 7 10 7 4 6 8 10
33 32 32 32 32 31 29 28 28 27 27 24 15 7 7 6 2 2 5 4 2 1 1 2 3 2 2 3 2 2 1 3 1 1 2 1 0 2 3 4 1 2 4 5 3 2 1 1 1 1 2 1 1 1 2 3 3 3 5 2 0 3 3 1 1 1 6 8 7 6 4 3 5 6 7 7 7 8 7 9 10 10 8 6 8 10 11
33 33 33 32 32 32 31 29 27 26 26 23 17 13 11 7 2 2 5 4 2 3 2 1 0 1 2 3 3 4 4 3 2 3 2 3 1 1 3 4 2 3 3 3 4 0 1 1 0 2 4 4 3 4 4 2 2 2 2 4 3 3 2 1 1 1 4 5 7 6 1 5 9 6 4 6 7 8 8 11 14 11 11 12 13 14 15
31 32 32 33 32 32 32 30 28 26 23 20 19 20 17 10 4 3 5 5 1 2 2 1 2 0 0 2 3 5 5 4 3 3 3 3 3 3 2 3 4 3 1 3 2 2 1 3 2 1 2 3 4 4 4 3 3 4 3 3 4 5 3 2 1 2 2 3 4 2 5 10 12 9 3 3 2 3 2 9 14 13 11 11 12 14 15
29 30 31 31 32 32 31 31 29 27 24 20 20 22 21 15 8 3 3 5 0 3 2 2 4 2 2 3 3 2 2 3 3 3 3 2 3 5 4 2 2 1 1 1 2 3 0 2 4 3 3 4 3 2 2 2 2 2 3 2 2 6 4 1 1 2 1 0 2 4 6 10 10 4 1 2 2 3 3 3 11 11 8 9 10 12 13
27 28 29 30 30 30 30 30 30 28 26 21 18 19 22 21 14 5 2 5 3 1 1 1 3 4 4 4 3 1 3 3 3 3 2 0 1 4 3 2 2 2 1 1 2 3 1 1 2 3 4 2 2 2 0 0 1 1 1 2 1 4 3 3 2 1 1 1 3 4 5 6 7 6 5 3 2 5 6 2 8 11 7 8 9 10 12
24 26 27 28 29 29 29 29 29 28 27 22 17 16 21 23 19 10 2 4 5 1 3 5 6 6 4 3 3 2 2 2 2 3 5 3 2 3 2 1 2 2 1 2 2 3 3 1 2 1 2 3 2 2 2 1 2 1 1 3 4 3 2 3 2 2 0 3 1 2 3 6 8 8 7 5 3 5 6 2 6 9 7 7 8 9 10
22 23 24 26 27 28 28 29 28 28 27 23 18 16 20 23 21 14 5 3 4 2 4 6 7 5 4 2 2 3 3 2 2 1 3 3 2 3 2 1 1 2 1 2 2 3 3 1 2 1 4 4 3 1 3 1 1 3 1 3 4 3 3 2 2 4 3 3 2 3 5 8 10 9 6 5 4 6 7 5 8 7 6 5 7 8 10
19 21 22 23 24 26 26 27 28 28 27 25 19 16 18 21 20 15 7 3 3 4 5 8 7 2 3 4 4 4 3 3 2 0 1 2 2 1 2 1 1 1 1 1 2 2 2 2 2 3 4 3 1 1 2 2 2 4 2 2 2 1 0 1 3 3 4 4 3 4 5 8 10 8 4 6 4 4 2 6 8 5 4 5 6 8 10
17 18 20 21 22 23 24 25 26 27 27 26 20 15 16 20 19 15 8 4 2 3 5 7 5 3 3 4 2 1 2 3 3 3 1 3 2 3 3 1 1 1 1 2 1 1 2 2 2 3 2 4 1 2 2 3 3 3 3 1 1 1 1 1 2 2 3 4 3 3 7 7 5 3 2 4 3 1 5 7 5 3 6 7 7 8 9
15 17 18 19 20 21 22 23 24 25 25 27 23 16 16 20 19 15 9 3 3 2 5 6 6 6 6 4 2 2 2 1 2 3 3 3 3 4 3 2 1 1 2 1 1 1 2 3 3 2 2 4 2 2 2 3 3 3 4 4 4 4 3 2 3 4 2 1 1 1 7 7 6 7 1 2 5 6 6 5 6 7 8 9 9 8 7
15 16 17 18 18 19 20 21 23 23 23 25 25 19 17 19 19 15 9 2 4 0 3 4 6 8 8 8 7 4 3 3 2 3 3 4 3 4 3 4 4 3 2 3 3 2 2 3 2 1 2 2 1 1 2 3 6 5 4 3 2 4 5 3 4 3 4 3 4 5 6 7 8 6 4 7 9 7 5 6 9 11 9 8 9 9 8
14 15 16 17 17 18 19 20 21 22 22 23 24 22 20 20 20 17 11 3 3 4 6 8 10 12 13 14 15 12 9 7 4 1 1 1 2 3 3 3 3 4 3 3 3 2 2 3 2 2 2 2 2 3 3 2 5 6 2 2 3 7 7 5 4 5 4 6 9 9 7 5 7 8 10 12 11 9 6 6 9 10 9 8 8 10 10
15 15 16 17 18 18 19 19 20 21 22 22 24 24 22 21 20 17 11 5 3 5 9 10 10 12 11 11 13 14 14 11 8 5 1 1 2 3 2 3 3 3 2 3 4 4 3 4 3 2 2 3 3 2 2 3 4 4 2 3 6 7 5 4 3 4 4 7 11 12 13 14 11 10 11 11 11 10 9 8 9 10 10 9 8 9 11
16 17 17 18 19 19 19 19 19 19 21 22 22 23 21 19 19 18 11 4 3 4 5 4 3 4 5 5 7 9 11 11 11 10 6 2 2 3 2 2 2 1 2 4 2 4 3 2 2 2 3 4 4 3 4 5 5 4 3 3 7 5 4 4 4 3 2 7 10 9 12 15 13 11 10 9 10 11 10 8 9 11 11 10 9 9 10
17 18 18 18 19 20 20 20 20 20 20 20 21 21 19 18 20 19 12 4 2 1 2 5 3 2 3 5 6 6 7 8 10 11 10 7 5 4 5 6 3 2 4 4 1 2 1 2 2 2 4 4 3 3 4 5 4 4 4 4 5 3 3 4 6 5 5 10 13 11 11 13 12 11 10 9 11 13 11 9 10 10 10 11 10 9 8
17 17 17 17 18 19 20 21 21 20 20 19 20 19 15 16 20 21 15 7 3 2 0 5 5 3 6 7 8 8 8 8 9 8 8 8 7 7 7 8 6 4 3 4 2 1 2 1 2 3 4 3 3 3 4 3 2 2 4 6 3 2 3 4 3 4 6 11 15 13 11 12 14 13 9 7 9 12 12 11 10 9 10 11 11 10 9
17 17 17 17 17 17 19 20 20 20 19 18 18 17 11 9 16 23 21 13 5 2 2 3 4 7 11 10 10 11 9 8 8 6 6 6 6 6 5 4 4 3 4 4 2 1 2 1 2 4 4 3 2 2 3 3 1 1 6 5 2 2 5 4 2 2 8 11 11 8 5 8 12 14 12 7 7 8 10 12 12 12 13 12 13 13 12
17 17 17 17 16 16 17 18 19 19 18 17 17 16 10 4 8 18 23 19 9 1 3 4 7 13 14 9 7 8 8 7 6 4 4 4 3 3 3 1 1 1 2 1 1 0 1 2 3 3 2 2 2 2 3 2 0 3 8 8 6 7 8 6 6 6 10 13 12 7 4 7 11 14 14 10 6 7 11 14 14 14 14 12 11 13 13
17 17 17 16 16 16 15 17 18 18 17 17 16 13 8 4 4 12 21 21 13 3 2 4 6 8 7 5 6 9 8 7 5 3 3 2 1 2 2 3 4 3 3 3 2 2 3 4 3 3 2 2 2 3 3 1 3 8 11 11 11 10 9 9 10 10 10 14 14 7 4 8 12 14 14 12 10 10 13 15 14 13 13 12 10 10 12
15 16 16 15 15 15 15 16 16 16 18 18 13 8 4 2 5 13 21 21 15 7 2 1 3 4 3 4 6 9 9 6 4 2 1 1 1 2 3 4 5 4 2 1 2 3 2 3 3 3 3 2 2 2 2 2 4 9 10 11 12 11 8 9 10 8 9 14 13 7 6 9 11 12 13 12 11 10 10 11 14 14 13 13 11 9 12
14 15 15 14 14 15 15 16 15 15 17 16 10 4 1 1 7 17 21 19 14 8 2 1 3 4 4 3 3 6 8 5 3 2 1 0 0 2 4 3 3 4 3 1 1 2 3 3 2 2 3 1 2 3 3 2 5 13 15 11 8 6 7 8 8 8 10 12 11 10 10 11 9 9 11 11 13 13 11 12 17 19 18 17 15 14 16
13 14 13 13 14 15 15 15 15 15 16 14 8 2 2 5 11 15 15 14 12 6 1 1 3 3 2 3 3 4 4 3 3 3 2 1 1 1 3 3 3 4 4 2 1 2 3 3 2 2 2 2 3 2 2 3 10 20 24 15 3 2 3 7 8 6 5 5 7 10 14 13 8 8 10 13 18 19 15 14 19 21 20 18 18 18 20
13 13 13 13 14 14 14 15 16 15 14 9 5 4 4 7 10 11 12 12 9 3 1 0 3 2 2 3 3 3 2 2 3 3 2 2 2 1 1 2 1 3 4 4 3 2 2 2 2 2 2 2 2 1 3 11 19 21 19 15 10 6 6 8 8 5 3 4 4 6 11 14 13 12 13 15 17 18 16 16 19 19 16 13 13 15 15
13 13 13 13 13 13 14 14 14 12 8 5 4 6 10 11 11 12 13 10 6 2 0 0 1 3 3 3 3 2 1 1 2 2 2 1 1 1 1 1 1 1 4 4 2 2 1 1 1 2 2 1 2 2 7 15 16 11 9 11 13 12 10 9 7 4 4 6 6 7 10 13 14 15 14 13 14 16 16 15 14 13 12 11 11 12 13
12 13 14 13 13 14 14 12 10 9 6 5 7 12 16 16 16 15 12 7 3 1 2 1 0 3 4 5 5 3 0 1 2 2 1 2 1 0 0 1 2 2 3 2 1 1 1 1 2 2 1 1 2 4 6 9 10 9 7 11 14 11 8 8 7 3 2 4 6 6 8 9 9 10 10 11 12 13 13 11 9 9 10 11 12 12 11
12 13 14 13 13 12 10 6 7 9 8 9 14 18 18 16 14 10 5 2 2 1 1 1 1 1 2 4 5 2 1 2 3 1 1 2 2 1 2 2 1 3 1 1 0 2 2 2 2 1 2 3 4 3 3 7 11 12 12 15 14 6 3 6 7 5 5 6 7 6 5 6 7 7 8 9 9 10 11 12 12 11 11 12 13 12 10
12 13 13 12 11 8 4 3 6 10 13 17 19 17 13 9 5 4 4 4 2 1 1 1 2 2 1 2 4 2 2 3 3 2 2 2 1 1 1 1 2 3 1 1 3 4 2 1 2 3 5 6 4 4 6 7 11 14 14 14 9 4 3 6 6 5 7 8 7 6 6 7 8 8 8 9 10 10 11 12 11 10 10 11 11 11 11
11 11 11 10 8 3 1 3 9 16 20 21 17 10 5 2 3 3 3 4 2 1 2 1 3 2 1 1 3 2 1 2 2 2 2 2 1 1 0 1 2 2 1 3 4 3 2 1 2 4 6 5 4 5 7 9 10 9 8 8 6 4 5 6 4 4 5 6 7 8 7 7 8 9 9 9 10 10 9 10 10 10 9 9 10 13 14
10 10 10 9 5 1 3 10 18 21 20 15 8 3 2 2 2 1 1 2 1 1 1 0 3 2 0 2 5 4 1 1 3 3 2 2 2 1 1 1 2 0 1 4 3 2 1 3 2 2 4 4 4 6 9 7 5 5 6 6 6 5 5 5 3 1 2 2 5 6 6 6 7 8 7 8 8 8 8 9 11 13 13 13 15 16 16
12 11 8 5 4 8 14 20 21 18 12 6 2 1 1 1 1 0 0 2 2 0 1 1 2 2 2 2 4 4 1 1 1 2 2 2 2 0 0 2 2 0 2 5 3 1 1 3 2 2 4 4 5 7 7 4 3 4 4 5 6 6 6 5 4 4 5 7 9 9 10 10 10 8 8 8 8 8 8 8 10 14 16 16 17 17 17
11 8 5 4 10 17 21 19 14 8 3 1 2 2 2 1 1 0 1 2 1 3 2 1 1 3 2 1 2 3 2 2 1 2 1 3 2 1 0 3 2 0 3 5 2 2 1 2 3 4 5 5 6 7 6 4 4 5 5 5 7 7 6 5 4 4 5 7 8 10 12 14 13 12 14 13 10 8 9 11 14 19 19 17 17 18 21
6 6 6 9 13 14 12 8 4 2 2 2 1 1 1 1 1 1 1 1 1 2 1 1 1 3 3 2 3 3 3 2 2 1 1 3 2 1 1 2 1 1 4 4 0 2 1 2 5 6 5 5 6 6 5 4 4 4 5 6 6 6 6 6 6 6 7 8 9 11 14 16 16 17 17 16 14 14 15 16 20 24 25 24 22 22 23
7 6 6 7 6 4 3 2 1 1 2 1 1 1 2 2 1 1 1 2 1 0 1 1 1 2 2 2 3 4 4 2 1 0 1 2 1 0 0 1 1 2 3 1 1 1 2 5 7 7 5 4 5 5 4 4 5 4 5 7 7 7 8 8 9 10 12 12 13 14 15 16 17 17 17 19 19 20 23 26 27 28 31 34 33 30 29
7 5 4 3 2 1 2 1 1 2 1 1 1 2 0 2 1 0 1 2 1 1 2 1 1 2 2 1 1 2 3 2 0 0 2 2 1 1 1 3 3 2 2 1 1 2 5 6 6 5 4 4 5 4 3 4 5 4 5 8 8 8 9 10 10 11 12 13 13 14 15 17 20 23 25 26 24 23 27 34 36 35 34 34 34 36 37
6 4 3 3 2 1 1 1 1 1 1 2 2 3 3 3 3 2 3 2 1 1 2 1 2 1 3 2 1 1 1 0 0 1 1 1 1 1 3 3 2 1 2 2 3 5 7 6 2 2 5 5 4 4 4 4 4 5 6 8 10 10 9 10 10 9 11 15 19 21 23 25 26 27 29 32 33 31 31 33 36 36 34 32 30 34 39
3 1 2 2 2 1 1 1 1 1 2 2 3 3 4 4 4 4 3 1 1 2 3 3 1 2 4 3 2 1 1 1 1 2 1 1 2 4 2 1 1 1 2 4 6 8 9 5 0 1 5 5 4 5 5 5 5 5 5 6 9 10 12 13 13 12 15 20 24 25 25 25 25 26 28 33 36 36 33 33 33 33 32 29 30 33 37
1 1 2 1 1 1 1 2 3 3 3 3 4 4 4 3 3 3 3 2 2 3 4 3 2 4 4 2 2 2 1 2 1 2 1 1 3 3 1 1 3 3 3 7 9 7 4 3 2 3 5 6 5 6 7 6 6 7 7 7 8 10 12 13 14 16 21 25 26 26 25 25 26 26 27 29 33 35 35 34 33 32 31 31 33 36 37
0 1 1 1 1 2 2 2 2 2 3 3 3 3 2 1 1 3 5 3 1 3 5 4 3 3 3 2 2 3 2 1 2 3 1 1 1 2 1 2 4 4 4 7 7 4 3 4 4 5 6 6 6 7 7 7 7 9 9 8 9 11 14 16 18 23 28 29 26 25 26 27 27 28 27 27 30 35 37 36 34 34 34 34 36 37 37
2 2 1 1 1 3 3 2 1 3 4 4 4 4 3 1 3 5 5 3 1 3 4 2 2 3 3 1 1 3 2 2 2 2 0 1 3 2 1 4 8 7 4 3 3 3 4 5 6 6 7 7 7 7 7 8 9 10 10 12 15 19 21 22 25 29 31 29 26 27 29 30 29 28 27 26 27 32 37 38 37 37 38 38 36 35 35
3 3 2 3 3 3 2 1 2 4 4 3 3 4 3 3 4 4 2 2 2 4 4 2 2 2 2 1 2 3 4 3 2 2 4 5 4 3 4 9 11 7 3 2 3 4 6 5 5 7 9 9 10 10 11 11 12 15 19 24 27 28 28 30 31 32 32 31 30 30 30 29 28 28 27 27 30 33 37 39 39 39 41 41 37 33 31
3 3 3 5 6 4 2 2 4 5 4 3 4 4 2 2 2 3 4 5 4 4 4 2 2 2 3 3 4 4 2 1 2 4 6 6 4 4 8 11 8 3 4 5 5 5 6 6 6 7 10 12 12 12 13 16 20 24 28 31 31 30 30 32 31 31 31 33 33 32 30 30 32 32 32 34 34 32 29 32 38 40 40 39 37 34 32
4 3 2 3 5 5 4 5 6 5 5 5 4 3 3 3 5 8 10 8 5 3 3 3 3 3 4 4 3 3 2 3 4 6 8 7 5 5 7 8 5 3 4 6 6 5 6 7 7 9 11 12 13 15 19 23 27 30 33 33 31 30 30 31 31 31 31 31 32 33 33 33 35 36 34 32 28 22 17 22 33 40 39 38 37 37 37
Wind_Direction
30 29 28 28 28 28 27 25 23 23 24 31 36 42 57 65 138 328 349 352 97 72 55 345 23 61 193 334 57 36 72 122 125 25 354 307 185 36 44 169 109 159 189 148 155 179 200 201 203 221 234 238 223 74 84 113 116 100 120 222 259 92 86 28 290 289 297 304 313 348 26 91 167 248 152 140 153 139 151 178 188 220 244 165 116 251 268
30 29 28 28 28 28 28 27 24 22 24 26 36 72 100 89 189 342 7 14 110 87 83 128 45 40 296 39 33 349 65 120 91 240 259 261 155 111 129 207 134 153 154 109 150 192 184 217 239 198 211 232 5 30 32 66 141 136 157 141 140 280 134 73 335 336 341 341 347 344 339 347 221 244 199 153 123 104 119 144 102 265 232 166 151 242 262
29 29 28 28 29 28 29 29 26 24 25 28 44 103 130 62 143 303 12 35 63 92 144 139 123 143 86 64 37 8 37 82 135 182 221 220 175 147 26 213 115 114 107 75 102 204 22 265 308 24 237 253 358 19 334 20 141 193 320 19 140 224 197 136 96 17 330 315 313 315 306 273 238 213 193 191 139 131 154 133 98 245 236 162 171 240 273
30 29 28 28 29 29 29 30 30 29 27 36 55 72 102 70 53 314 350 27 54 74 106 96 107 142 118 78 15 49 63 305 277 146 175 268 166 120 348 118 80 75 91 68 326 283 326 19 10 325 246 269 295 230 317 69 131 223 313 14 84 100 218 203 175 185 208 232 248 261 329 299 278 265 241 220 181 146 125 113 165 203 189 204 228 238 272
30 30 28 28 29 29 30 31 32 34 35 48 60 53 50 90 64 5 324 351 28 40 19 44 78 135 130 107 335 125 84 317 336 131 239 325 85 22 35 119 138 167 141 115 253 265 326 32 336 224 232 265 287 228 141 90 25 336 273 222 105 86 282 245 196 220 234 236 254 270 319 267 261 263 258 230 196 157 152 188 212 169 115 270 246 213 245
31 30 29 29 29 29 32 32 33 38 43 58 72 52 25 75 115 212 134 18 26 32 13 45 70 65 89 108 101 125 72 309 233 209 309 1 2 304 356 306 231 200 171 124 166 301 345 330 248 236 246 277 330 347 150 124 347 342 334 296 118 121 261 239 186 250 258 249 263 271 255 253 255 249 250 244 201 178 196 219 209 163 194 252 254 238 259
32 30 30 30 29 30 32 33 35 39 45 59 71 71 18 74 107 269 28 89 166 185 343 73 80 57 67 92 103 148 156 224 230 199 57 352 330 80 269 284 257 204 177 115 140 248 315 311 271 220 205 259 310 325 244 185 300 309 61 335 130 145 247 232 175 287 281 263 265 258 222 253 279 254 236 231 213 201 213 229 215 199 232 253 265 277 277
33 32 31 30 30 31 32 35 37 39 44 56 65 64 35 88 136 178 54 62 129 188 356 68 73 35 37 72 98 167 172 209 236 183 134 251 294 132 220 265 242 173 164 134 199 226 185 207 250 191 169 281 228 212 224 159 76 16 88 331 330 166 265 230 117 316 292 289 310 291 213 222 271 280 263 228 223 226 227 234 225 221 245 258 266 277 278
32 32 32 31 31 32 32 35 37 39 45 56 64 51 35 75 165 148 100 55 355 5 22 64 80 29 6 41 18 256 207 214 219 207 177 186 208 187 185 205 154 112 147 200 243 241 191 194 223 180 173 253 214 212 234 143 129 33 152 152 58 153 279 356 57 344 281 290 349 322 295 259 263 283 280 229 206 222 219 214 200 195 224 261 274 269 267
32 32 32 31 32 32 33 34 36 39 47 58 72 51 32 52 343 31 97 85 354 21 19 25 72 60 333 217 227 283 277 281 254 229 315 50 195 204 180 164 146 118 243 239 248 247 187 192 233 182 180 247 212 213 178 130 135 160 168 161 114 142 146 1 38 312 273 283 325 314 318 345 315 270 240 192 201 231 246 244 219 200 200 248 259 253 264
33 32 32 31 31 31 33 35 34 37 43 52 68 68 37 42 13 14 75 77 352 358 59 28 59 118 194 186 185 203 269 317 335 177 274 310 169 208 165 141 148 233 227 243 273 283 182 197 262 143 122 33 35 94 113 115 105 137 153 156 175 122 117 200 194 238 273 290 320 335 357 357 282 235 177 179 223 230 233 252 241 212 199 226 249 266 281
35 34 33 32 32 31 31 33 33 36 40 43 54 60 38 26 42 66 84 97 347 358 51 29 251 174 190 180 185 197 197 214 201 175 219 250 217 169 145 142 192 237 237 298 317 268 185 284 335 83 56 41 45 56 69 79 29 25 130 141 144 131 130 216 190 192 265 307 357 6 335 237 260 267 215 219 228 204 216 261 265 241 224 241 261 271 274
36 36 35 34 34 32 31 32 31 33 36 33 40 49 38 26 52 83 95 109 356 334 58 346 311 10 251 219 206 215 216 230 247 207 200 223 216 211 196 170 184 194 316 333 356 109 183 309 342 29 6 21 38 44 45 40 12 3 26 94 137 147 161 200 185 204 276 356 27 331 272 277 292 309 298 209 184 162 227 282 277 254 227 230 250 260 264
36 36 36 35 34 34 33 32 30 28 29 27 34 44 39 32 42 62 93 97 250 248 159 12 316 271 230 227 196 212 273 292 293 250 210 205 213 219 225 201 186 209 339 341 51 72 325 342 18 354 334 4 10 1 35 44 40 38 8 342 141 140 147 194 257 221 198 11 260 265 307 314 311 311 200 169 158 176 175 271 282 269 223 208 239 260 266
34 35 36 35 34 34 33 33 32 28 27 24 26 37 36 31 32 36 106 108 100 249 187 216 241 192 187 211 176 110 330 313 286 266 276 37 220 240 245 216 226 289 296 131 78 58 42 35 26 348 332 344 327 308 328 13 2 84 344 310 113 125 156 186 213 248 113 91 299 316 346 315 278 253 256 260 200 170 147 141 288 282 246 210 224 249 263
29 30 32 33 33 33 33 33 33 30 29 26 20 26 30 25 24 28 51 110 95 10 241 197 171 144 141 192 192 179 258 260 236 295 325 326 292 285 282 212 209 253 356 62 77 81 71 101 160 173 250 224 222 278 285 276 302 321 11 42 70 67 50 117 149 280 26 115 205 255 250 259 257 255 261 261 189 136 104 36 289 274 256 218 205 231 255
22 23 26 27 28 30 30 30 30 29 29 28 22 24 28 21 16 17 27 89 81 314 239 157 122 105 116 155 209 212 201 174 155 318 313 289 289 317 313 289 211 214 185 49 38 75 91 133 155 179 252 224 161 266 278 211 269 281 319 48 65 56 24 72 173 241 222 153 188 238 239 251 262 263 249 219 170 106 70 335 281 253 241 210 187 224 253
16 16 18 20 22 24 25 26 27 27 27 27 24 23 27 22 15 14 26 84 61 307 233 162 134 131 171 171 189 196 175 148 140 144 308 292 274 237 215 175 121 232 219 91 49 82 119 197 186 176 248 260 135 220 248 179 231 245 188 130 95 82 50 160 176 210 199 179 216 270 264 249 257 266 223 171 147 80 63 266 259 249 258 230 195 229 256
9 8 9 12 14 17 19 21 22 23 23 24 23 21 23 21 17 19 29 80 90 301 238 184 172 210 182 129 106 159 164 133 133 137 24 311 253 183 165 150 129 164 91 91 119 129 136 258 244 148 216 286 258 187 220 205 212 195 142 158 262 216 178 162 156 186 190 181 199 279 286 254 204 176 192 169 150 224 233 237 253 282 290 277 253 249 257
6 2 1 2 4 8 11 12 15 18 19 20 20 20 19 14 14 20 27 82 129 299 264 207 203 227 209 176 161 168 153 98 124 147 164 217 205 128 81 320 265 137 93 111 211 215 172 240 262 158 199 253 226 181 250 262 248 204 177 212 228 186 177 228 211 185 154 115 127 288 285 257 159 125 117 208 190 226 247 273 290 285 287 292 283 267 256
6 1 359 358 358 0 2 3 6 8 12 15 15 16 16 11 8 9 8 66 135 76 292 229 226 245 240 236 241 230 205 218 209 164 170 211 199 136 148 227 204 172 172 159 168 228 205 201 238 228 208 232 236 209 221 287 302 276 201 188 219 190 186 221 236 196 147 158 209 214 233 220 173 163 237 231 217 240 280 308 299 291 292 293 286 274 259
6 3 3 0 358 357 355 356 358 359 2 7 9 10 14 8 2 2 355 326 190 225 261 262 267 271 265 260 263 265 261 261 267 261 139 176 210 180 169 182 183 191 192 147 145 228 220 174 186 211 212 218 233 226 195 205 293 287 213 147 225 217 197 194 225 219 191 203 227 240 254 236 192 207 245 255 259 272 278 272 278 285 285 280 282 282 275
4 2 2 3 1 357 353 351 353 354 355 359 3 7 11 8 5 5 357 320 277 266 262 268 283 284 275 269 267 263 260 260 267 274 280 97 272 259 199 182 214 229 200 167 176 185 187 191 182 169 209 215 196 210 240 233 245 249 203 210 248 234 188 161 219 244 267 262 246 245 262 267 252 238 246 261 273 279 277 268 266 270 271 271 269 270 273
6 2 2 4 3 2 358 354 353 351 350 355 0 5 10 14 14 12 6 340 342 328 292 286 294 277 279 300 303 288 275 263 258 263 267 249 260 285 284 249 246 291 283 252 198 123 135 202 172 143 229 221 171 177 244 249 233 205 177 247 282 269 164 170 232 251 294 276 254 232 242 258 266 270 271 270 267 265 266 264 260 264 271 272 267 265 270
9 5 4 4 3 4 2 359 355 352 349 351 356 3 15 26 26 25 27 16 4 17 307 304 298 279 314 336 340 328 307 285 270 262 259 248 225 236 286 313 320 285 279 293 1 81 174 214 145 172 231 224 187 197 227 237 229 199 184 222 266 266 163 187 231 222 220 258 268 265 261 264 270 272 271 271 272 271 268 261 258 265 273 273 268 263 265
13 9 6 3 2 3 2 359 357 354 350 349 354 1 18 36 36 36 36 15 345 102 118 287 281 316 355 350 333 320 307 290 279 263 253 253 243 240 278 318 329 317 341 14 40 150 206 214 170 200 222 224 213 211 219 233 231 208 222 226 208 157 182 192 212 240 258 272 278 283 288 286 279 273 263 247 251 266 275 278 278 280 280 280 276 265 255
16 13 9 5 3 1 0 359 357 354 350 349 350 352 2 33 40 39 37 27 10 12 347 298 278 312 328 328 319 313 302 281 276 267 250 251 253 255 275 310 332 348 14 11 350 106 95 328 258 216 218 243 238 206 224 248 226 212 248 243 159 174 228 205 135 273 269 267 266 269 290 294 287 290 293 279 251 262 281 291 295 292 286 286 288 285 277
16 14 10 6 4 0 358 358 356 353 350 347 345 345 341 348 32 36 33 31 32 7 261 266 282 302 313 322 330 328 315 295 285 270 244 247 257 258 252 202 76 35 57 31 303 140 166 255 254 223 230 264 263 260 280 299 261 241 245 229 195 205 216 187 171 218 249 264 270 269 267 274 281 291 300 306 308 297 291 291 293 290 287 288 289 290 292
12 10 7 5 3 358 355 356 354 351 350 347 342 338 331 325 21 26 19 16 17 8 259 287 300 301 307 324 338 342 339 321 303 272 231 227 221 213 196 165 161 163 142 133 160 190 212 225 220 220 228 198 207 273 299 307 245 250 243 226 218 218 207 200 214 233 259 277 285 294 291 279 285 294 299 306 310 300 291 292 291 288 288 290 285 276 279
9 8 4 2 1 354 350 351 351 349 349 348 344 340 343 10 22 7 2 2 4 2 3 323 304 307 322 327 333 348 357 349 326 305 228 182 170 184 182 176 175 166 136 118 177 189 228 251 246 260 259 206 176 260 274 234 255 262 246 223 224 230 224 225 237 248 264 275 288 319 318 291 290 296 296 298 299 294 290 293 295 295 297 296 292 282 276
7 5 3 359 356 352 349 348 347 347 348 350 355 13 46 321 333 341 347 353 354 352 7 196 273 306 328 325 328 354 360 356 343 337 329 233 244 195 182 188 194 180 165 175 194 198 221 227 232 277 284 215 159 208 225 221 278 274 262 240 215 220 242 255 255 249 260 282 305 321 306 291 293 303 305 309 313 312 306 297 297 299 299 294 290 284 281
4 1 1 357 354 354 351 347 345 344 344 348 359 14 279 293 315 330 344 353 350 346 14 274 306 315 317 297 303 340 343 328 325 334 314 233 226 196 185 190 198 190 180 166 201 251 227 189 197 256 259 181 177 207 219 222 248 260 266 272 276 140 230 263 270 261 260 294 319 314 304 301 306 311 310 311 315 315 310 302 302 304 302 298 294 288 286
1 357 356 352 351 351 348 345 345 343 341 350 12 12 343 330 325 329 343 350 346 342 135 300 303 285 277 300 317 339 338 310 327 347 325 220 190 155 211 214 194 203 202 185 192 247 232 152 172 255 255 204 174 146 233 241 246 258 278 299 315 311 275 270 277 281 268 252 242 263 283 293 303 310 308 305 306 308 305 303 306 309 309 306 304 301 300
359 352 349 347 348 346 341 340 341 342 349 20 32 357 345 337 324 321 332 342 342 322 310 74 287 285 303 328 326 320 9 341 319 334 320 262 191 128 282 305 10 219 213 195 189 276 289 153 184 254 270 233 141 187 246 257 266 288 315 308 296 291 289 286 283 275 259 253 237 232 255 278 298 312 313 308 308 312 313 311 311 317 323 320 317 318 317
358 350 344 342 341 337 334 338 349 359 12 17 347 335 331 324 317 319 328 348 28 351 314 31 4 296 314 329 312 285 133 7 289 255 253 281 287 162 124 358 344 259 224 194 134 269 256 195 194 229 249 179 194 228 257 291 321 342 331 292 284 289 301 303 303 304 258 261 266 265 269 282 298 306 308 311 315 319 322 323 326 332 332 324 321 324 323
357 348 341 339 336 331 330 349 15 16 6 341 329 326 320 314 318 330 344 55 120 179 278 352 342 277 285 304 297 294 36 342 306 294 332 311 310 5 70 70 295 263 228 91 301 257 243 200 190 251 259 216 216 238 350 351 335 319 296 283 284 296 304 283 291 326 334 308 303 306 308 309 307 301 301 308 314 321 329 334 339 344 338 328 326 326 323
356 347 341 340 339 337 348 39 20 357 340 328 323 320 313 313 343 34 64 76 88 178 119 24 285 250 203 267 285 339 24 325 310 343 334 276 247 316 52 125 243 268 326 306 243 232 216 177 191 239 249 237 251 329 352 325 294 285 282 285 301 357 350 284 294 336 336 325 330 338 338 333 324 318 320 324 325 331 336 334 333 332 325 319 318 315 311
359 354 355 0 2 5 34 357 340 331 326 323 320 314 307 345 52 74 68 56 36 357 86 108 265 280 31 275 273 294 330 307 334 357 304 254 253 326 347 201 242 261 295 274 241 187 147 218 217 232 255 268 289 290 268 256 260 273 292 306 323 336 309 296 322 3 352 349 348 337 332 334 327 319 319 319 317 320 322 318 317 316 311 305 306 310 312
9 11 15 18 23 7 305 321 323 322 319 318 319 307 296 359 42 36 1 50 57 7 44 124 250 252 124 273 280 284 278 337 346 341 300 267 280 280 253 272 283 283 295 287 272 164 195 264 254 242 268 287 284 259 250 255 286 317 328 322 315 316 315 313 313 280 248 264 278 278 282 291 292 291 292 291 291 295 296 298 306 314 316 317 319 320 319
23 27 28 22 335 315 318 322 322 322 319 318 343 33 1 353 36 124 331 28 30 296 186 184 244 243 187 219 270 285 277 204 267 275 262 255 256 217 118 278 274 157 274 277 275 118 207 267 268 257 255 255 267 274 276 283 295 297 304 317 330 349 360 343 304 262 240 249 263 269 270 269 266 269 278 281 284 290 293 292 297 301 302 304 307 311 311
25 26 19 327 310 312 315 318 320 324 339 13 22 31 28 336 312 300 81 58 353 268 224 120 4 314 306 216 241 260 274 276 213 168 219 274 276 107 228 268 272 250 258 260 262 66 44 266 260 259 246 235 253 280 300 319 314 316 335 351 354 356 353 341 322 295 268 267 276 281 283 284 282 280 277 274 273 282 295 302 304 303 301 296 293 297 302
8 349 326 314 310 310 314 322 332 1 51 49 24 12 2 322 333 350 29 125 229 259 248 139 187 250 263 255 229 232 261 319 356 87 247 283 280 163 215 277 320 265 250 253 348 55 28 268 267 262 248 243 265 293 322 328 314 317 323 323 324 325 319 312 308 300 287 275 274 282 291 292 286 280 282 291 303 309 308 305 305 311 317 318 312 306 303
350 343 329 318 316 322 338 347 24 70 51 44 75 38 340 324 343 8 294 281 280 267 257 248 262 285 285 261 235 236 250 275 310 96 252 273 282 62 316 299 273 236 245 274 17 352 247 246 251 250 245 256 274 290 306 300 291 296 298 294 294 299 295 287 285 293 296 290 283 284 285 283 281 291 308 321 321 313 309 310 314 321 326 326 323 317 312
6 9 2 345 347 26 24 8 80 92 53 281 172 129 157 288 288 144 262 279 298 296 270 257 40 354 309 262 208 246 259 257 144 164 274 285 333 44 269 252 241 241 269 293 274 251 248 247 250 260 271 274 270 267 275 289 294 297 300 301 302 301 296 290 285 289 296 299 301 302 303 307 314 323 328 327 320 313 314 319 324 325 324 321 317 314 312
22 23 27 15 353 358 63 43 31 74 204 222 197 164 175 207 214 213 222 219 214 317 320 353 120 185 263 266 237 238 258 282 176 228 251 318 318 252 233 237 250 293 295 267 249 258 265 267 270 271 269 273 290 300 291 285 285 289 306 320 323 320 317 314 309 305 310 319 326 330 330 329 329 327 323 320 319 318 318 318 319 317 315 313 310 307 309
37 44 67 37 334 330 110 141 285 269 206 205 203 189 183 191 207 224 239 241 240 296 305 303 258 250 266 274 267 240 194 142 254 250 131 91 260 248 224 218 269 278 274 256 250 256 266 271 279 265 276 290 318 314 289 275 272 277 293 313 319 321 323 321 316 315 320 324 326 327 325 321 318 316 314 314 313 312 310 309 307 306 306 305 303 302 304
36 32 77 91 269 273 175 196 217 221 221 221 210 199 202 216 238 252 256 238 228 267 291 291 265 257 255 250 256 257 213 148 232 256 173 144 251 267 6 343 249 233 235 247 251 259 283 298 293 290 294 301 306 301 297 299 302 305 313 315 310 311 314 314 314 319 323 323 321 318 314 311 309 308 307 306 305 304 304 304 303 302 300 299 298 300 301
77 316 109 157 233 235 217 220 241 243 238 239 237 232 233 253 290 280 273 260 259 312 319 321 314 296 282 249 240 258 252 175 234 256 234 115 247 266 335 269 251 236 228 244 257 287 332 305 284 292 302 302 300 303 311 312 308 307 310 308 306 312 319 321 321 321 319 317 315 311 308 307 307 305 303 301 300 301 301 302 301 300 299 297 297 299 300
191 230 207 193 256 244 218 207 304 288 258 255 272 287 298 300 271 274 283 297 329 320 310 296 270 278 283 272 251 259 251 209 220 247 244 210 227 217 198 246 254 254 249 254 278 302 296 284 287 298 299 297 297 300 302 303 304 306 309 313 318 323 323 319 315 313 311 310 308 305 304 305 305 303 301 299 297 298 300 301 301 300 298 297 297 297 298
212 225 207 200 236 251 226 210 265 266 251 234 244 262 278 278 268 272 304 17 10 338 331 317 256 257 276 289 277 263 244 215 198 222 240 239 230 205 220 239 246 255 280 299 283 276 280 289 301 304 304 310 313 314 315 317 318 318 318 319 320 319 314 309 307 307 306 305 304 302 302 301 299 298 297 295 295 296 298 299 298 298 299 300 300 300 299
235 236 210 204 219 231 221 214 244 255 256 238 225 227 230 219 227 266 301 320 333 336 327 299 258 268 275 262 255 259 256 220 200 232 244 241 211 194 227 243 254 296 324 300 284 284 295 304 308 308 311 315 315 313 315 316 313 311 311 311 310 308 305 303 302 302 302 301 301 300 298 297 296 296 296 295 295 296 296 297 298 299 301 302 304 304 302
237 243 243 225 221 227 242 248 248 258 267 259 235 217 220 223 234 256 272 282 286 281 268 248 233 250 258 251 244 252 264 250 236 239 243 241 223 215 240 258 282 318 303 295 301 306 302 300 301 302 304 305 303 305 307 308 306 304 303 302 302 301 300 298 298 298 298 297 297 297 296 295 296 297 297 296 294 294 293 294 297 300 301 303 304 304 303